Flag for United Kingdom Weather past 2 weeks in Liverpool, England, United Kingdom

Now
45 °F

Passing clouds.


Feels Like: 41 °F
Forecast: 46 / 49 °F
Wind: 7 mph from Northwest

Location: Liverpool Airport

Current Time: Apr 2, 2015 at 5:56:31 AM

Latest Report: Apr 2, 2015 at 5:20 AM


Visibility: N/A

Pressure: 30.07 "Hg

Humidity: 87%

Dew point: 41 °F

Location of LiverpoolLocation

Historic Weather in Liverpool — Graph

°F

Liverpool temperature yesterday

Maximum temperature yesterday: 48 °F (at 12:50 PM)
Minimum temperature yesterday: 43 °F (at 12:20 AM)
Average temperature yesterday: 45 °F

Past Weeks' High & Low Weather Summary

 TemperatureHumidityPressure
High57 °F (Mar 28, 12:20 PM)100% (Mar 18, 3:20 AM)30.60 "Hg (Mar 18, 3:20 AM)
Low30 °F (Mar 19, 6:20 AM)50% (Mar 21, 3:50 PM)29.21 "Hg (Mar 29, 10:50 AM)
Average45 °F81%29.99 "Hg
* Reported Mar 18 3:20 AM — Apr 2 4:20 AM, Liverpool, Weather by CustomWeather, © 2015

Note: Actual official high and low records may vary slightly from our data, if they occured in-between our weather recording intervals... More about our weather records

Advertising

Liverpool weather history for previous 24 hours

 ConditionsComfort  
Time TempWeatherWind HumidityBarometerVisibility
4:20 AM
Thu, Apr 2
43 °FLight rain. Passing clouds.9 mph93%30.04 "HgN/A
3:50 AM43 °FLight rain. Passing clouds.8 mph93%30.04 "HgN/A
3:20 AM43 °FLight rain. Passing clouds.10 mph87%30.04 "HgN/A
2:50 AM43 °FPartly cloudy.10 mph93%30.04 "HgN/A
2:20 AM43 °FLight rain. Partly cloudy.8 mph93%30.04 "HgN/A
1:50 AM43 °FLight rain. Partly cloudy.10 mph93%30.01 "HgN/A
1:20 AM43 °FLight rain. Partly cloudy.9 mph93%30.01 "HgN/A
12:50 AM43 °FLight rain. Partly cloudy.10 mph93%30.01 "Hg6 mi
12:20 AM45 °FLight rain. Partly cloudy.10 mph93%30.01 "Hg6 mi
11:50 PM
Wed, Apr 1
45 °FLight rain. Partly cloudy.10 mph93%29.98 "Hg6 mi
11:20 PM46 °FLight rain. Passing clouds.10 mph93%29.98 "HgN/A
10:50 PM45 °FLight rain. Passing clouds.9 mph100%29.98 "HgN/A
10:20 PM45 °FLight rain. Passing clouds.8 mph100%29.98 "HgN/A
9:50 PM43 °FSprinkles. Partly cloudy.6 mph100%30.01 "HgN/A
9:20 PM45 °FSprinkles. Partly cloudy.5 mph93%30.01 "HgN/A
8:50 PM45 °FSprinkles. Partly cloudy.8 mph93%30.04 "Hg6 mi
8:20 PM45 °FSprinkles. Broken clouds.12 mph93%30.04 "HgN/A
7:50 PM45 °FScattered showers. Broken clouds.10 mph93%30.07 "HgN/A
7:20 PM46 °FSprinkles. Broken clouds.10 mph87%30.07 "HgN/A
6:50 PM46 °FSprinkles. Broken clouds.17 mph87%30.09 "HgN/A
6:20 PM46 °FSprinkles. Broken clouds.22 mph82%30.09 "HgN/A
5:50 PM46 °FSprinkles. Broken clouds.18 mph82%30.09 "HgN/A
5:20 PM46 °FSprinkles. Broken clouds.25 mph82%30.12 "HgN/A
4:50 PM48 °FScattered showers. Scattered clouds.26 mph71%30.12 "HgN/A
4:20 PM48 °FScattered showers. Scattered clouds.24 mph71%30.12 "HgN/A
3:50 PM48 °FScattered showers. Scattered clouds.28 mph71%30.12 "HgN/A
3:20 PM48 °FScattered showers. Scattered clouds.30 mph71%30.15 "HgN/A
2:50 PM48 °FScattered clouds.29 mph71%30.15 "HgN/A
2:20 PM48 °FScattered clouds.29 mph71%30.15 "HgN/A
1:50 PM48 °FScattered showers. Partly sunny.28 mph71%30.18 "HgN/A
1:20 PM48 °FPartly sunny.26 mph71%30.18 "HgN/A
12:50 PM48 °FScattered clouds.30 mph71%30.18 "HgN/A
12:20 PM46 °FScattered clouds.29 mph76%30.18 "HgN/A
11:50 AM46 °FScattered clouds.31 mph76%30.18 "HgN/A
11:20 AM46 °FScattered clouds.29 mph76%30.18 "HgN/A
10:50 AM46 °FScattered clouds.28 mph71%30.18 "HgN/A
10:20 AM45 °FScattered clouds.26 mph76%30.18 "HgN/A
9:50 AM45 °FScattered clouds.28 mph81%30.18 "HgN/A
9:20 AM45 °FScattered showers. Scattered clouds.25 mph76%30.18 "HgN/A
8:50 AM43 °FScattered showers. Scattered clouds.25 mph87%30.18 "HgN/A
8:20 AM43 °FScattered showers. Scattered clouds.23 mph81%30.18 "HgN/A
7:50 AM43 °FScattered showers. Passing clouds.25 mph81%30.15 "HgN/A
7:20 AM43 °FScattered showers. Passing clouds.24 mph81%30.15 "HgN/A
6:50 AM43 °FScattered showers. Partly cloudy.24 mph81%30.15 "HgN/A
6:20 AM43 °FScattered showers. Partly cloudy.23 mph81%30.15 "HgN/A
5:50 AM43 °FScattered showers. Passing clouds.22 mph81%30.12 "HgN/A
5:20 AM43 °FScattered showers. Passing clouds.22 mph76%30.12 "HgN/A
Weather by CustomWeather, © 2015

See weather overviewHow to use our weather pages